Prague, Czech Republic

7:31 PM CET on March 25, 2017 (GMT +0100)
Prague-Ruzyne Airport

Weather History for LKPR - November, 2013

Change the Weather History Date:

Friday, November 15, 2013

  Actual Average Record
Temperature  
Mean Temperature 34 °F -  
Max Temperature 37 °F 39 °F 59 °F (2006)
Min Temperature 32 °F 29 °F 21 °F (2011)
Degree Days  
Heating Degree Days 30    
Moisture  
Dew Point 34 °F    
Average Humidity 97    
Maximum Humidity 100    
Minimum Humidity 92    
Precipitation  
Precipitation 0.04 in 0.04 in - ()
Sea Level Pressure  
Sea Level Pressure 30.28 in    
Wind  
Wind Speed 2 mph ()    
Max Wind Speed 7 mph    
Max Gust Speed -    
Visibility 2.1 miles    
Events Fog , Rain , Snow    
Averages and records for this station are not official NWS values.
T = Trace of Precipitation, MM = Missing Value Source: Averaged Metar Reports

Daily Weather History Graph

Daily Weather History Graph

Search for Another Location

Airport or City:

Trip Planner

Search our weather history database for the weather conditions in past years. The results will help you decide how hot, cold, wet, or windy it might be!

Date:

Astronomy

Nov. 15, 2013 Rise Set
Actual Time 7:16 AM CET 4:18 PM CET
Civil Twilight 6:40 AM CET 4:54 PM CET
Nautical Twilight 6:00 AM CET 5:33 PM CET
Astronomical Twilight 5:22 AM CET 6:11 PM CET
Moon 3:14 PM CET (11/15) 4:42 AM CET (11/15)
Length of Visible Light 10h 13m
Length of Day
9h 02m
Waxing Gibbous, 95% of the Moon is Illuminated
Nov 15
Waxing Gibbous
Nov 17
Full
Nov 25
Last Quarter
Dec 3
New
Dec 9
First Quarter

Hourly Weather History & Observations

Time (CET) Temp. Windchill Dew Point Humidity Pressure Visibility Wind Dir Wind Speed Gust Speed Precip Events Conditions
12:00 AM 33.8 °F 30.8 °F 33.8 °F 100% 30.12 in 1.4 mi NNW 3.5 mph - N/A   Overcast
12:30 AM 33.8 °F - 33.8 °F 100% 30.12 in 1.4 mi NNW 2.3 mph - N/A   Overcast
1:00 AM 34 °F - 33 °F 94% 30.20 in 2 mi NW 2.2 mph - -   Mist
1:00 AM 33.8 °F - 32.0 °F 93% 30.12 in 2.2 mi Variable 1.2 mph - N/A   Overcast
1:30 AM 33.8 °F - 33.8 °F 100% 30.12 in 2.5 mi Variable 2.3 mph - N/A   Overcast
2:00 AM 33.8 °F - 33.8 °F 100% 30.15 in 2.5 mi Variable 2.3 mph - N/A   Overcast
2:17 AM 33.8 °F - 33.8 °F 100% 30.15 in - Calm Calm - N/A   Overcast
2:30 AM 33.8 °F - 33.8 °F 100% 30.15 in - Calm Calm - N/A   Overcast
3:00 AM 33.8 °F - 32.0 °F 93% 30.15 in 2.8 mi Calm Calm - N/A   Overcast
3:30 AM 33.8 °F - 33.8 °F 100% 30.15 in 2.8 mi Calm Calm - N/A Rain Light Rain
4:00 AM 33.8 °F - 33.8 °F 100% 30.15 in 3.1 mi Calm Calm - N/A Rain Light Rain
4:30 AM 33.8 °F - 33.8 °F 100% 30.15 in 2.8 mi NW 2.3 mph - N/A Rain Light Rain
5:00 AM 33.8 °F - 33.8 °F 100% 30.18 in 2.5 mi Calm Calm - N/A Rain Light Rain
5:30 AM 33.8 °F - 33.8 °F 100% 30.18 in 2.5 mi North 2.3 mph - N/A Rain Light Rain
6:00 AM 33.8 °F 30.8 °F 32.0 °F 93% 30.18 in - North 3.5 mph - N/A Rain , Snow Light Rain
6:30 AM 33.8 °F - 32.0 °F 93% 30.21 in 1.4 mi Variable 2.3 mph - N/A Snow Light Snow
6:53 AM 32.0 °F - 32.0 °F 100% 30.21 in 1.4 mi Calm Calm - N/A Snow Light Snow
7:00 AM 32 °F - 31 °F 96% 30.29 in 1 mi North 2.2 mph - - Snow Light Snow
7:00 AM 32.0 °F - 32.0 °F 100% 30.21 in 1.1 mi NNE 1.2 mph - N/A Snow Light Snow
7:08 AM 32.0 °F - 32.0 °F 100% 30.21 in 0.7 mi Variable 2.3 mph - N/A Snow Snow
7:30 AM 32.0 °F - 32.0 °F 100% 30.21 in 0.7 mi Variable 2.3 mph - N/A Snow Light Snow
8:00 AM 32.0 °F - 32.0 °F 100% 30.24 in 0.6 mi North 2.3 mph - N/A Snow Light Snow
8:30 AM 32.0 °F - 32.0 °F 100% 30.24 in 0.6 mi Calm Calm - N/A Rain Light Rain
9:00 AM 32.0 °F - 30.2 °F 93% 30.27 in 0.2 mi Variable 1.2 mph - N/A Fog Fog
9:22 AM 32.0 °F - 30.2 °F 93% 30.27 in 0.1 mi Variable 2.3 mph - N/A Fog Fog
9:30 AM 32.0 °F - 30.2 °F 93% 30.27 in 0.1 mi Variable 2.3 mph - N/A Fog Light Freezing Fog
10:00 AM 32.0 °F - 30.2 °F 93% 30.27 in 0.1 mi Variable 2.3 mph - N/A Fog Light Freezing Fog
10:30 AM 32.0 °F - 32.0 °F 100% 30.27 in 0.1 mi Variable 2.3 mph - N/A Fog Fog
11:00 AM 33.8 °F - 32.0 °F 93% 30.27 in 0.1 mi Calm Calm - N/A Fog Fog
11:13 AM 33.8 °F - 33.8 °F 100% 30.30 in 0.4 mi Variable 2.3 mph - N/A Fog Fog
11:20 AM 33.8 °F - 33.8 °F 100% 30.30 in 0.5 mi Variable 2.3 mph - N/A Fog Fog
11:30 AM 33.8 °F 30.8 °F 33.8 °F 100% 30.30 in 1.1 mi NNW 3.5 mph - N/A   Overcast
11:32 AM 33.8 °F 30.8 °F 33.8 °F 100% 30.30 in 1.1 mi North 3.5 mph - N/A   Overcast
11:41 AM 35.6 °F - 33.8 °F 93% 30.30 in - Variable 2.3 mph - N/A   Overcast
12:00 PM 35.6 °F 30.7 °F 35.6 °F 100% 30.30 in - North 5.8 mph - N/A   Overcast
12:30 PM 35.6 °F 30.7 °F 35.6 °F 100% 30.30 in 2.8 mi North 5.8 mph - N/A   Overcast
1:00 PM 36 °F - 35 °F 97% 30.37 in 3 mi NE 6.7 mph - -   Mist
1:00 PM 35.6 °F 32.8 °F 35.6 °F 100% 30.30 in 3.1 mi North 3.5 mph - N/A   Overcast
1:30 PM 35.6 °F 30.7 °F 35.6 °F 100% 30.30 in 3.1 mi NE 5.8 mph - N/A   Overcast
2:00 PM 35.6 °F 31.7 °F 35.6 °F 100% 30.30 in 3.1 mi ENE 4.6 mph - N/A   Overcast
2:30 PM 35.6 °F 30.7 °F 33.8 °F 93% 30.33 in 2.8 mi ENE 5.8 mph - N/A   Overcast
3:00 PM 35.6 °F 30.7 °F 33.8 °F 93% 30.33 in 3.1 mi NNE 5.8 mph - N/A   Overcast
3:30 PM 35.6 °F 31.7 °F 33.8 °F 93% 30.33 in - NE 4.6 mph - N/A   Overcast
4:00 PM 35.6 °F 31.7 °F 33.8 °F 93% 30.33 in - NNE 4.6 mph - N/A   Overcast
4:30 PM 35.6 °F 32.8 °F 35.6 °F 100% 30.33 in - NNE 3.5 mph - N/A   Overcast
4:53 PM 35.6 °F - 35.6 °F 100% 30.33 in - Variable 2.3 mph - N/A   Overcast
5:00 PM 35.6 °F 32.8 °F 35.6 °F 100% 30.36 in - North 3.5 mph - N/A   Overcast
5:30 PM 37.4 °F 34.9 °F 35.6 °F 93% 30.36 in - North 3.5 mph - N/A   Overcast
6:00 PM 37.4 °F - 35.6 °F 93% 30.36 in 3.1 mi North 2.3 mph - N/A   Overcast
6:30 PM 37.4 °F - 35.6 °F 93% 30.39 in 3.1 mi Variable 2.3 mph - N/A   Overcast
7:00 PM 37 °F - 35 °F 92% 30.44 in 3 mi North 4.5 mph - -   Mist
7:00 PM 37.4 °F 34.9 °F 35.6 °F 93% 30.39 in 3.1 mi NNW 3.5 mph - N/A   Overcast
7:30 PM 37.4 °F 33.8 °F 35.6 °F 93% 30.39 in 3.7 mi NNW 4.6 mph - N/A   Overcast
8:00 PM 37.4 °F 34.9 °F 35.6 °F 93% 30.39 in 3.1 mi NW 3.5 mph - N/A   Overcast
8:30 PM 37.4 °F - 35.6 °F 93% 30.36 in 3.1 mi Variable 1.2 mph - N/A   Overcast
9:00 PM 37.4 °F - 35.6 °F 93% 30.39 in 3.7 mi Calm Calm - N/A   Overcast
9:30 PM 37.4 °F 33.8 °F 35.6 °F 93% 30.39 in 3.7 mi NNW 4.6 mph - N/A   Overcast
10:00 PM 37.4 °F 34.9 °F 35.6 °F 93% 30.39 in 3.1 mi NNW 3.5 mph - N/A   Overcast
10:30 PM 37.4 °F - 35.6 °F 93% 30.39 in 3.1 mi Variable 2.3 mph - N/A   Overcast
11:00 PM 37.4 °F - 35.6 °F 93% 30.36 in 3.1 mi Variable 2.3 mph - N/A   Overcast
11:30 PM 37.4 °F 34.9 °F 35.6 °F 93% 30.36 in 3.1 mi NW 3.5 mph - N/A   Overcast